Voltar ao catálogo

EXPRESS MD2

AtivoComunicaçõesUNKNOWN
NORAD 38745·PAYLOAD·🇷🇺 Russia

Lançado Aug 6, 2012 de Baikonur Cosmodrome

Loading…

Próximas Passagens (próximas 24 horas)

TLE

AtualizadoSource: Space-Track

Época: Sep 14, 2026, 08:52 UTC

1 38745U 12044B   26257.37003675  .00046268  57612-5  78568-3 0  9990
2 38745  49.8215 134.1247 1540228  54.7857 318.7639 12.49857864571934

Acompanhe EXPRESS MD2 em tempo real com AllMySat

Download on the App Store